Time,TemperatureF,DewpointF,PressureIn,WindDirection,WindDirectionDegrees,WindSpeedMPH,WindSpeedGustMPH,Humidity,HourlyPrecipIn,Conditions,Clouds,dailyrainin,SoftwareType,DateUTC
2013-04-19 00:00:00,62.4,54.7,29.77,East,101,13.0,13.0,76,0.00,,,0.00,Wunderground v.1.15,2013-04-19 04:00:00,
2013-04-19 00:01:00,62.3,54.6,29.77,SE,143,13.0,13.0,76,0.00,,,0.00,Wunderground v.1.15,2013-04-19 04:01:00,
2013-04-19 00:02:00,62.3,54.6,29.77,ESE,117,13.0,13.0,76,0.00,,,0.00,Wunderground v.1.15,2013-04-19 04:02:00,
2013-04-19 00:03:00,62.3,54.6,29.77,ENE,74,13.0,15.0,76,0.00,,,0.00,Wunderground v.1.15,2013-04-19 04:03:00,
2013-04-19 00:07:00,62.4,54.7,29.77,SSE,156,13.0,27.0,76,0.00,,,0.00,Wunderground v.1.15,2013-04-19 04:07:00,
2013-04-19 00:12:00,62.4,54.7,29.77,South,183,13.0,13.0,76,0.00,,,0.00,Wunderground v.1.15,2013-04-19 04:12:00,
2013-04-19 00:17:00,62.6,54.9,29.76,ESE,116,12.0,26.0,76,0.00,,,0.00,Wunderground v.1.15,2013-04-19 04:17:00,
2013-04-19 00:23:00,62.6,54.9,29.76,NE,53,12.0,14.0,76,0.00,,,0.00,Wunderground v.1.15,2013-04-19 04:23:00,
2013-04-19 00:28:00,62.8,55.1,29.76,ESE,113,13.0,20.0,76,0.00,,,0.00,Wunderground v.1.15,2013-04-19 04:28:00,
2013-04-19 00:34:00,62.8,55.1,29.76,East,101,14.0,25.0,76,0.00,,,0.00,Wunderground v.1.15,2013-04-19 04:34:00,
2013-04-19 00:40:00,62.8,55.1,29.77,ESE,106,12.0,16.0,76,0.00,,,0.00,Wunderground v.1.15,2013-04-19 04:40:00,
2013-04-19 00:45:00,62.8,55.1,29.76,ESE,117,12.0,16.0,76,0.00,,,0.00,Wunderground v.1.15,2013-04-19 04:45:00,
2013-04-19 00:51:00,62.9,55.2,29.76,ESE,114,12.0,13.0,76,0.00,,,0.00,Wunderground v.1.15,2013-04-19 04:51:00,
2013-04-19 00:56:00,62.9,55.2,29.75,SE,129,12.0,16.0,76,0.00,,,0.00,Wunderground v.1.15,2013-04-19 04:56:00,
2013-04-19 01:01:00,62.9,55.2,29.75,ESE,115,11.0,11.0,76,0.00,,,0.00,Wunderground v.1.15,2013-04-19 05:01:00,
2013-04-19 01:07:00,63.0,55.3,29.76,ESE,122,11.0,14.0,76,0.00,,,0.00,Wunderground v.1.15,2013-04-19 05:07:00,
2013-04-19 01:13:00,63.1,55.4,29.75,SE,136,10.0,12.0,76,0.00,,,0.00,Wunderground v.1.15,2013-04-19 05:13:00,
2013-04-19 01:18:00,63.3,55.6,29.75,SE,143,11.0,20.0,76,0.00,,,0.00,Wunderground v.1.15,2013-04-19 05:18:00,
2013-04-19 01:24:00,63.3,55.6,29.75,SSE,160,11.0,18.0,76,0.00,,,0.00,Wunderground v.1.15,2013-04-19 05:24:00,
2013-04-19 01:29:00,63.3,55.6,29.75,SE,135,10.0,18.0,76,0.00,,,0.00,Wunderground v.1.15,2013-04-19 05:29:00,
2013-04-19 01:35:00,63.4,55.7,29.75,SE,143,10.0,14.0,76,0.00,,,0.00,Wunderground v.1.15,2013-04-19 05:35:00,
2013-04-19 01:40:00,63.6,55.9,29.74,SSE,164,12.0,22.0,76,0.00,,,0.00,Wunderground v.1.15,2013-04-19 05:40:00,
2013-04-19 01:46:00,63.7,55.6,29.74,ESE,120,13.0,26.0,75,0.00,,,0.00,Wunderground v.1.15,2013-04-19 05:46:00,
2013-04-19 01:51:00,63.6,55.9,29.74,ESE,112,11.0,11.0,76,0.00,,,0.00,Wunderground v.1.15,2013-04-19 05:51:00,
2013-04-19 01:57:00,63.7,55.6,29.73,SSE,147,12.0,19.0,75,0.00,,,0.00,Wunderground v.1.15,2013-04-19 05:57:00,
2013-04-19 02:02:00,63.7,56.0,29.73,South,185,11.0,17.0,76,0.00,,,0.00,Wunderground v.1.15,2013-04-19 06:02:00,
2013-04-19 02:07:00,63.8,55.7,29.72,SSE,161,11.0,17.0,75,0.00,,,0.00,Wunderground v.1.15,2013-04-19 06:07:00,
2013-04-19 02:13:00,63.9,55.8,29.72,SSE,150,12.0,13.0,75,0.00,,,0.00,Wunderground v.1.15,2013-04-19 06:13:00,
2013-04-19 02:18:00,63.9,55.8,29.71,West,266,13.0,25.0,75,0.00,,,0.00,Wunderground v.1.15,2013-04-19 06:18:00,
2013-04-19 02:23:00,64.0,55.9,29.71,East,101,13.0,18.0,75,0.00,,,0.00,Wunderground v.1.15,2013-04-19 06:23:00,
2013-04-19 02:29:00,64.0,55.9,29.72,SE,140,13.0,28.0,75,0.00,,,0.00,Wunderground v.1.15,2013-04-19 06:29:00,
2013-04-19 02:35:00,64.1,56.0,29.72,East,86,11.0,18.0,75,0.00,,,0.00,Wunderground v.1.15,2013-04-19 06:35:00,
2013-04-19 02:41:00,64.0,55.9,29.72,WSW,239,11.0,11.0,75,0.00,,,0.00,Wunderground v.1.15,2013-04-19 06:41:00,
2013-04-19 02:47:00,64.0,55.9,29.71,SW,221,11.0,15.0,75,0.00,,,0.00,Wunderground v.1.15,2013-04-19 06:47:00,
2013-04-19 02:53:00,63.9,55.8,29.71,ESE,120,12.0,16.0,75,0.00,,,0.00,Wunderground v.1.15,2013-04-19 06:53:00,
2013-04-19 02:58:00,63.9,55.8,29.70,South,170,12.0,17.0,75,0.00,,,0.00,Wunderground v.1.15,2013-04-19 06:58:00,
2013-04-19 03:03:00,63.8,55.7,29.69,SE,131,11.0,14.0,75,0.00,,,0.00,Wunderground v.1.15,2013-04-19 07:03:00,
2013-04-19 03:09:00,63.8,55.7,29.70,ESE,108,11.0,22.0,75,0.00,,,0.00,Wunderground v.1.15,2013-04-19 07:09:00,
2013-04-19 03:14:00,63.8,55.7,29.70,SE,126,11.0,25.0,75,0.00,,,0.00,Wunderground v.1.15,2013-04-19 07:14:00,
2013-04-19 03:19:00,63.8,55.7,29.70,SSE,152,11.0,25.0,75,0.00,,,0.00,Wunderground v.1.15,2013-04-19 07:19:00,
2013-04-19 03:25:00,63.8,55.7,29.70,SE,133,11.0,12.0,75,0.00,,,0.00,Wunderground v.1.15,2013-04-19 07:25:00,
2013-04-19 03:30:00,63.7,55.6,29.70,South,183,11.0,11.0,75,0.00,,,0.00,Wunderground v.1.15,2013-04-19 07:30:00,
2013-04-19 03:36:00,63.7,55.6,29.69,SE,127,11.0,17.0,75,0.00,,,0.00,Wunderground v.1.15,2013-04-19 07:36:00,
2013-04-19 03:41:00,63.7,55.6,29.69,SE,126,12.0,15.0,75,0.00,,,0.00,Wunderground v.1.15,2013-04-19 07:41:00,
2013-04-19 03:47:00,63.8,55.7,29.69,South,191,12.0,16.0,75,0.00,,,0.00,Wunderground v.1.15,2013-04-19 07:47:00,
2013-04-19 03:52:00,63.7,55.6,29.68,ESE,118,11.0,16.0,75,0.00,,,0.00,Wunderground v.1.15,2013-04-19 07:52:00,
2013-04-19 03:58:00,63.9,55.8,29.68,SE,145,11.0,16.0,75,0.00,,,0.00,Wunderground v.1.15,2013-04-19 07:58:00,
2013-04-19 04:03:00,63.8,55.7,29.68,SE,140,11.0,16.0,75,0.00,,,0.00,Wunderground v.1.15,2013-04-19 08:03:00,
2013-04-19 04:08:00,63.9,55.8,29.68,ESE,120,11.0,16.0,75,0.00,,,0.00,Wunderground v.1.15,2013-04-19 08:08:00,
2013-04-19 04:14:00,64.1,55.6,29.68,SE,142,13.0,19.0,74,0.00,,,0.00,Wunderground v.1.15,2013-04-19 08:14:00,
2013-04-19 04:20:00,64.2,55.7,29.69,ESE,122,12.0,19.0,74,0.00,,,0.00,Wunderground v.1.15,2013-04-19 08:20:00,
2013-04-19 04:25:00,64.3,55.8,29.69,ESE,115,11.0,12.0,74,0.00,,,0.00,Wunderground v.1.15,2013-04-19 08:25:00,
2013-04-19 04:31:00,64.3,55.8,29.68,ESE,105,10.0,23.0,74,0.00,,,0.00,Wunderground v.1.15,2013-04-19 08:31:00,
2013-04-19 04:36:00,64.3,55.8,29.68,SE,131,10.0,23.0,74,0.00,,,0.00,Wunderground v.1.15,2013-04-19 08:36:00,
2013-04-19 04:42:00,64.3,55.8,29.68,ESE,117,9.0,12.0,74,0.00,,,0.00,Wunderground v.1.15,2013-04-19 08:42:00,
2013-04-19 04:47:00,64.3,55.8,29.67,NNE,20,11.0,15.0,74,0.00,,,0.00,Wunderground v.1.15,2013-04-19 08:47:00,
2013-04-19 04:53:00,64.3,55.8,29.67,WSW,240,11.0,14.0,74,0.00,,,0.00,Wunderground v.1.15,2013-04-19 08:53:00,
2013-04-19 04:58:00,64.3,55.8,29.67,SE,125,11.0,14.0,74,0.00,,,0.00,Wunderground v.1.15,2013-04-19 08:58:00,
2013-04-19 05:03:00,64.4,55.9,29.67,East,85,12.0,18.0,74,0.00,,,0.00,Wunderground v.1.15,2013-04-19 09:03:00,
2013-04-19 05:09:00,64.3,56.2,29.67,SE,126,10.0,18.0,75,0.00,,,0.00,Wunderground v.1.15,2013-04-19 09:09:00,
2013-04-19 05:14:00,64.3,56.2,29.67,SE,133,10.0,14.0,75,0.00,,,0.00,Wunderground v.1.15,2013-04-19 09:14:00,
2013-04-19 05:20:00,64.3,56.2,29.67,ESE,115,11.0,11.0,75,0.00,,,0.00,Wunderground v.1.15,2013-04-19 09:20:00,
2013-04-19 05:25:00,64.4,56.3,29.67,East,94,11.0,14.0,75,0.00,,,0.00,Wunderground v.1.15,2013-04-19 09:25:00,
2013-04-19 05:31:00,64.3,56.2,29.67,ESE,102,10.0,10.0,75,0.00,,,0.00,Wunderground v.1.15,2013-04-19 09:31:00,
2013-04-19 05:36:00,64.4,56.3,29.67,ESE,117,9.0,10.0,75,0.00,,,0.00,Wunderground v.1.15,2013-04-19 09:36:00,
2013-04-19 05:42:00,64.4,56.3,29.67,ESE,112,9.0,15.0,75,0.00,,,0.00,Wunderground v.1.15,2013-04-19 09:42:00,
2013-04-19 05:47:00,64.5,56.4,29.67,ENE,58,9.0,15.0,75,0.00,,,0.00,Wunderground v.1.15,2013-04-19 09:47:00,
2013-04-19 05:53:00,64.6,56.5,29.67,ESE,110,10.0,23.0,75,0.00,,,0.00,Wunderground v.1.15,2013-04-19 09:53:00,
2013-04-19 05:59:00,64.6,56.5,29.67,East,97,11.0,23.0,75,0.00,,,0.00,Wunderground v.1.15,2013-04-19 09:59:00,
2013-04-19 06:04:00,64.7,56.6,29.67,ESE,116,10.0,15.0,75,0.00,,,0.00,Wunderground v.1.15,2013-04-19 10:04:00,
2013-04-19 06:09:00,64.8,56.7,29.67,NNE,30,10.0,15.0,75,0.00,,,0.00,Wunderground v.1.15,2013-04-19 10:09:00,
2013-04-19 06:15:00,64.9,56.8,29.67,SW,219,11.0,18.0,75,0.00,,,0.00,Wunderground v.1.15,2013-04-19 10:15:00,
2013-04-19 06:20:00,65.0,56.5,29.67,South,172,10.0,10.0,74,0.00,,,0.00,Wunderground v.1.15,2013-04-19 10:20:00,
2013-04-19 06:26:00,65.0,56.5,29.67,SE,143,9.0,16.0,74,0.00,,,0.00,Wunderground v.1.15,2013-04-19 10:26:00,
2013-04-19 06:31:00,65.1,56.6,29.67,ESE,117,10.0,10.0,74,0.00,,,0.00,Wunderground v.1.15,2013-04-19 10:31:00,
2013-04-19 06:37:00,65.2,56.7,29.67,SW,222,9.0,14.0,74,0.00,,,0.00,Wunderground v.1.15,2013-04-19 10:37:00,
2013-04-19 06:42:00,65.2,56.7,29.68,SW,221,9.0,9.0,74,0.00,,,0.00,Wunderground v.1.15,2013-04-19 10:42:00,
2013-04-19 06:48:00,65.4,56.9,29.67,NE,54,9.0,17.0,74,0.00,,,0.00,Wunderground v.1.15,2013-04-19 10:48:00,
2013-04-19 06:53:00,65.5,57.0,29.67,ESE,116,10.0,15.0,74,0.00,,,0.00,Wunderground v.1.15,2013-04-19 10:53:00,
2013-04-19 06:59:00,65.6,56.7,29.67,SE,143,10.0,15.0,73,0.00,,,0.00,Wunderground v.1.15,2013-04-19 10:59:00,
2013-04-19 07:04:00,65.6,56.7,29.67,ESE,119,9.0,11.0,73,0.00,,,0.00,Wunderground v.1.15,2013-04-19 11:04:00,
2013-04-19 07:09:00,65.8,56.9,29.67,ESE,123,9.0,11.0,73,0.00,,,0.00,Wunderground v.1.15,2013-04-19 11:09:00,
2013-04-19 07:14:00,65.9,57.0,29.67,SE,128,10.0,19.0,73,0.00,,,0.00,Wunderground v.1.15,2013-04-19 11:14:00,
2013-04-19 07:20:00,66.0,57.1,29.67,ESE,117,10.0,12.0,73,0.00,,,0.00,Wunderground v.1.15,2013-04-19 11:20:00,
2013-04-19 07:25:00,66.0,57.1,29.67,SE,146,9.0,14.0,73,0.00,,,0.00,Wunderground v.1.15,2013-04-19 11:25:00,
2013-04-19 07:31:00,66.2,56.9,29.66,ENE,71,9.0,9.0,72,0.00,,,0.00,Wunderground v.1.15,2013-04-19 11:31:00,
2013-04-19 07:36:00,66.3,57.0,29.66,SE,146,10.0,10.0,72,0.00,,,0.00,Wunderground v.1.15,2013-04-19 11:36:00,
2013-04-19 07:42:00,66.4,57.1,29.66,ENE,68,10.0,12.0,72,0.00,,,0.00,Wunderground v.1.15,2013-04-19 11:42:00,
2013-04-19 07:47:00,66.6,57.3,29.65,East,101,10.0,15.0,72,0.00,,,0.00,Wunderground v.1.15,2013-04-19 11:47:00,
2013-04-19 07:52:00,66.8,57.1,29.65,SE,132,11.0,17.0,71,0.00,,,0.00,Wunderground v.1.15,2013-04-19 11:52:00,
2013-04-19 07:58:00,67.0,57.3,29.65,SSE,163,10.0,19.0,71,0.00,,,0.00,Wunderground v.1.15,2013-04-19 11:58:00,
2013-04-19 08:03:00,67.2,57.5,29.65,SSE,150,9.0,10.0,71,0.00,,,0.00,Wunderground v.1.15,2013-04-19 12:03:00,
2013-04-19 08:08:00,67.4,57.3,29.65,ESE,122,9.0,17.0,70,0.00,,,0.00,Wunderground v.1.15,2013-04-19 12:08:00,
2013-04-19 08:14:00,67.7,57.6,29.64,East,88,10.0,12.0,70,0.00,,,0.00,Wunderground v.1.15,2013-04-19 12:14:00,
2013-04-19 08:19:00,67.9,57.8,29.65,SSW,194,11.0,15.0,70,0.00,,,0.00,Wunderground v.1.15,2013-04-19 12:19:00,
2013-04-19 08:25:00,68.1,57.5,29.64,East,94,11.0,13.0,69,0.00,,,0.00,Wunderground v.1.15,2013-04-19 12:25:00,
2013-04-19 08:30:00,68.1,57.5,29.64,SSW,203,12.0,14.0,69,0.00,,,0.00,Wunderground v.1.15,2013-04-19 12:30:00,
2013-04-19 08:35:00,68.2,57.6,29.64,ESE,115,10.0,21.0,69,0.00,,,0.00,Wunderground v.1.15,2013-04-19 12:35:00,
2013-04-19 08:41:00,68.3,57.3,29.64,SE,131,10.0,10.0,68,0.00,,,0.00,Wunderground v.1.15,2013-04-19 12:41:00,
2013-04-19 08:46:00,68.3,57.3,29.64,ESE,113,10.0,18.0,68,0.00,,,0.00,Wunderground v.1.15,2013-04-19 12:46:00,
2013-04-19 08:52:00,68.2,57.6,29.63,ESE,106,8.0,9.0,69,0.00,,,0.00,Wunderground v.1.15,2013-04-19 12:52:00,
2013-04-19 08:57:00,68.0,57.4,29.63,WNW,290,9.0,11.0,69,0.00,,,0.00,Wunderground v.1.15,2013-04-19 12:57:00,
2013-04-19 09:02:00,68.0,57.4,29.63,ESE,122,10.0,17.0,69,0.00,,,0.00,Wunderground v.1.15,2013-04-19 13:02:00,
2013-04-19 09:08:00,68.0,57.4,29.63,SSE,167,10.0,17.0,69,0.00,,,0.00,Wunderground v.1.15,2013-04-19 13:08:00,
2013-04-19 09:13:00,68.1,57.5,29.63,South,177,10.0,14.0,69,0.00,,,0.00,Wunderground v.1.15,2013-04-19 13:13:00,
2013-04-19 09:18:00,68.1,57.5,29.63,SE,128,8.0,14.0,69,0.00,,,0.00,Wunderground v.1.15,2013-04-19 13:18:00,
2013-04-19 09:24:00,68.2,57.6,29.62,East,101,8.0,9.0,69,0.00,,,0.00,Wunderground v.1.15,2013-04-19 13:24:00,
2013-04-19 09:29:00,68.2,57.6,29.62,ESE,117,9.0,11.0,69,0.00,,,0.00,Wunderground v.1.15,2013-04-19 13:29:00,
2013-04-19 09:35:00,68.2,57.6,29.61,SE,141,10.0,14.0,69,0.00,,,0.00,Wunderground v.1.15,2013-04-19 13:35:00,
2013-04-19 09:40:00,68.2,57.6,29.60,SE,142,10.0,10.0,69,0.00,,,0.00,Wunderground v.1.15,2013-04-19 13:40:00,
2013-04-19 09:46:00,68.3,57.7,29.60,South,172,10.0,13.0,69,0.00,,,0.00,Wunderground v.1.15,2013-04-19 13:46:00,
2013-04-19 09:51:00,68.3,57.3,29.61,ESE,120,10.0,12.0,68,0.00,,,0.00,Wunderground v.1.15,2013-04-19 13:51:00,
2013-04-19 09:57:00,68.3,57.3,29.60,SE,134,10.0,14.0,68,0.00,,,0.00,Wunderground v.1.15,2013-04-19 13:57:00,
2013-04-19 10:03:00,68.3,57.7,29.60,SE,131,9.0,9.0,69,0.00,,,0.00,Wunderground v.1.15,2013-04-19 14:03:00,
2013-04-19 10:08:00,68.3,57.3,29.60,East,79,9.0,15.0,68,0.00,,,0.00,Wunderground v.1.15,2013-04-19 14:08:00,
2013-04-19 10:14:00,68.4,57.4,29.60,ESE,113,8.0,15.0,68,0.00,,,0.00,Wunderground v.1.15,2013-04-19 14:14:00,
2013-04-19 10:19:00,68.5,57.5,29.59,ESE,121,8.0,15.0,68,0.00,,,0.00,Wunderground v.1.15,2013-04-19 14:19:00,
2013-04-19 10:25:00,68.6,57.6,29.59,ESE,108,8.0,12.0,68,0.00,,,0.00,Wunderground v.1.15,2013-04-19 14:25:00,
2013-04-19 10:30:00,68.6,57.2,29.59,ESE,105,9.0,9.0,67,0.00,,,0.00,Wunderground v.1.15,2013-04-19 14:30:00,
2013-04-19 10:36:00,68.6,57.2,29.58,ESE,120,10.0,12.0,67,0.00,,,0.00,Wunderground v.1.15,2013-04-19 14:36:00,
2013-04-19 10:41:00,68.7,57.3,29.58,South,170,9.0,19.0,67,0.00,,,0.00,Wunderground v.1.15,2013-04-19 14:41:00,
2013-04-19 10:47:00,68.8,57.4,29.58,ESE,117,9.0,19.0,67,0.00,,,0.00,Wunderground v.1.15,2013-04-19 14:47:00,
2013-04-19 10:52:00,68.8,57.4,29.58,West,263,9.0,9.0,67,0.00,,,0.00,Wunderground v.1.15,2013-04-19 14:52:00,
2013-04-19 10:58:00,68.8,57.4,29.57,SSE,152,9.0,10.0,67,0.00,,,0.00,Wunderground v.1.15,2013-04-19 14:58:00,
2013-04-19 11:03:00,68.8,57.4,29.56,ESE,114,10.0,13.0,67,0.00,,,0.00,Wunderground v.1.15,2013-04-19 15:03:00,
2013-04-19 11:09:00,68.8,57.4,29.55,ESE,123,11.0,18.0,67,0.00,,,0.00,Wunderground v.1.15,2013-04-19 15:09:00,
2013-04-19 11:14:00,68.9,57.1,29.56,SSW,212,9.0,12.0,66,0.00,,,0.00,Wunderground v.1.15,2013-04-19 15:14:00,
2013-04-19 11:20:00,69.1,57.3,29.56,ESE,122,9.0,10.0,66,0.00,,,0.00,Wunderground v.1.15,2013-04-19 15:20:00,
2013-04-19 11:25:00,69.1,57.3,29.56,ESE,120,11.0,16.0,66,0.00,,,0.00,Wunderground v.1.15,2013-04-19 15:25:00,
2013-04-19 11:31:00,69.2,56.9,29.56,SSE,150,10.0,17.0,65,0.00,,,0.00,Wunderground v.1.15,2013-04-19 15:31:00,
2013-04-19 11:36:00,69.3,57.0,29.56,SSE,157,10.0,17.0,65,0.00,,,0.00,Wunderground v.1.15,2013-04-19 15:36:00,
2013-04-19 11:42:00,69.3,57.0,29.55,SE,143,11.0,18.0,65,0.00,,,0.00,Wunderground v.1.15,2013-04-19 15:42:00,
2013-04-19 11:48:00,69.4,57.1,29.55,ESE,117,11.0,21.0,65,0.00,,,0.00,Wunderground v.1.15,2013-04-19 15:48:00,
2013-04-19 11:54:00,69.4,56.7,29.54,SE,139,12.0,16.0,64,0.00,,,0.00,Wunderground v.1.15,2013-04-19 15:54:00,
2013-04-19 12:00:00,69.4,57.1,29.53,SE,129,11.0,17.0,65,0.00,,,0.00,Wunderground v.1.15,2013-04-19 16:00:00,
2013-04-19 12:06:00,69.4,57.1,29.54,SSE,149,11.0,17.0,65,0.00,,,0.00,Wunderground v.1.15,2013-04-19 16:06:00,
2013-04-19 12:11:00,69.6,56.9,29.53,East,92,11.0,20.0,64,0.00,,,0.00,Wunderground v.1.15,2013-04-19 16:11:00,
2013-04-19 12:17:00,69.7,57.0,29.53,SE,131,11.0,20.0,64,0.00,,,0.00,Wunderground v.1.15,2013-04-19 16:17:00,
2013-04-19 12:23:00,69.9,57.2,29.53,South,177,11.0,21.0,64,0.00,,,0.00,Wunderground v.1.15,2013-04-19 16:23:00,
2013-04-19 12:28:00,69.9,56.7,29.53,ESE,122,13.0,21.0,63,0.00,,,0.00,Wunderground v.1.15,2013-04-19 16:28:00,
2013-04-19 12:33:00,70.0,57.3,29.52,ESE,110,13.0,18.0,64,0.00,,,0.00,Wunderground v.1.15,2013-04-19 16:33:00,
2013-04-19 12:39:00,70.1,56.9,29.52,ESE,109,13.0,18.0,63,0.00,,,0.00,Wunderground v.1.15,2013-04-19 16:39:00,
2013-04-19 12:44:00,70.2,57.0,29.53,SE,133,12.0,22.0,63,0.00,,,0.00,Wunderground v.1.15,2013-04-19 16:44:00,
2013-04-19 12:50:00,70.3,57.1,29.53,East,90,12.0,17.0,63,0.00,,,0.00,Wunderground v.1.15,2013-04-19 16:50:00,
2013-04-19 12:56:00,70.3,57.1,29.52,South,190,12.0,17.0,63,0.00,,,0.00,Wunderground v.1.15,2013-04-19 16:56:00,
2013-04-19 13:02:00,70.5,57.3,29.52,SE,145,12.0,20.0,63,0.00,,,0.00,Wunderground v.1.15,2013-04-19 17:02:00,
2013-04-19 13:08:00,70.7,57.5,29.50,ESE,115,12.0,20.0,63,0.00,,,0.00,Wunderground v.1.15,2013-04-19 17:08:00,
2013-04-19 13:13:00,70.8,57.1,29.50,South,183,11.0,12.0,62,0.00,,,0.00,Wunderground v.1.15,2013-04-19 17:13:00,
2013-04-19 13:19:00,71.0,57.3,29.49,SE,139,11.0,15.0,62,0.00,,,0.00,Wunderground v.1.15,2013-04-19 17:19:00,
2013-04-19 13:24:00,71.2,57.5,29.49,ESE,123,10.0,15.0,62,0.00,,,0.00,Wunderground v.1.15,2013-04-19 17:24:00,
2013-04-19 13:29:00,71.5,57.3,29.48,ESE,117,11.0,15.0,61,0.00,,,0.00,Wunderground v.1.15,2013-04-19 17:29:00,
2013-04-19 13:35:00,71.8,57.6,29.49,SE,124,12.0,19.0,61,0.00,,,0.00,Wunderground v.1.15,2013-04-19 17:35:00,
2013-04-19 13:40:00,71.8,57.2,29.48,ESE,105,12.0,18.0,60,0.00,,,0.00,Wunderground v.1.15,2013-04-19 17:40:00,
2013-04-19 13:46:00,71.9,57.3,29.48,East,94,13.0,18.0,60,0.00,,,0.00,Wunderground v.1.15,2013-04-19 17:46:00,
2013-04-19 13:51:00,72.0,57.4,29.49,ESE,109,14.0,22.0,60,0.00,,,0.00,Wunderground v.1.15,2013-04-19 17:51:00,
2013-04-19 13:56:00,72.0,57.4,29.49,SE,138,14.0,22.0,60,0.00,,,0.00,Wunderground v.1.15,2013-04-19 17:56:00,
2013-04-19 14:02:00,72.1,57.4,29.48,SW,217,12.0,20.0,60,0.00,,,0.00,Wunderground v.1.15,2013-04-19 18:02:00,
2013-04-19 14:08:00,72.2,58.0,29.48,SE,129,11.0,20.0,61,0.00,,,0.00,Wunderground v.1.15,2013-04-19 18:08:00,
2013-04-19 14:13:00,72.3,57.6,29.47,SE,136,13.0,14.0,60,0.00,,,0.00,Wunderground v.1.15,2013-04-19 18:13:00,
2013-04-19 14:19:00,72.4,57.7,29.46,ESE,120,13.0,19.0,60,0.00,,,0.00,Wunderground v.1.15,2013-04-19 18:19:00,
2013-04-19 14:24:00,72.6,57.9,29.47,ESE,119,13.0,18.0,60,0.00,,,0.00,Wunderground v.1.15,2013-04-19 18:24:00,
2013-04-19 14:29:00,72.7,58.0,29.46,ESE,115,12.0,18.0,60,0.00,,,0.00,Wunderground v.1.15,2013-04-19 18:29:00,
2013-04-19 14:35:00,72.8,58.1,29.45,ESE,109,12.0,14.0,60,0.00,,,0.00,Wunderground v.1.15,2013-04-19 18:35:00,
2013-04-19 14:40:00,72.7,58.0,29.44,ESE,106,11.0,11.0,60,0.00,,,0.00,Wunderground v.1.15,2013-04-19 18:40:00,
2013-04-19 14:46:00,72.7,58.5,29.42,ESE,120,13.0,17.0,61,0.00,,,0.00,Wunderground v.1.15,2013-04-19 18:46:00,
2013-04-19 14:51:00,73.5,58.8,29.42,SE,139,12.0,12.0,60,0.00,,,0.00,Wunderground v.1.15,2013-04-19 18:51:00,
2013-04-19 14:57:00,74.2,58.9,29.41,ESE,113,10.0,17.0,59,0.00,,,0.00,Wunderground v.1.15,2013-04-19 18:57:00,
2013-04-19 15:02:00,74.3,58.6,29.41,ESE,112,11.0,16.0,58,0.00,,,0.00,Wunderground v.1.15,2013-04-19 19:02:00,
2013-04-19 15:07:00,74.2,58.9,29.40,East,86,9.0,16.0,59,0.00,,,0.00,Wunderground v.1.15,2013-04-19 19:07:00,
2013-04-19 15:13:00,73.9,58.7,29.41,NNE,12,7.0,13.0,59,0.00,,,0.00,Wunderground v.1.15,2013-04-19 19:13:00,
2013-04-19 15:18:00,73.5,58.3,29.38,SE,134,10.0,17.0,59,0.00,,,0.00,Wunderground v.1.15,2013-04-19 19:18:00,
2013-04-19 15:24:00,73.4,58.7,29.39,SE,135,11.0,11.0,60,0.00,,,0.00,Wunderground v.1.15,2013-04-19 19:24:00,
2013-04-19 15:29:00,73.5,58.8,29.38,ESE,105,9.0,11.0,60,0.00,,,0.00,Wunderground v.1.15,2013-04-19 19:29:00,
2013-04-19 15:35:00,73.5,58.8,29.38,SE,136,9.0,12.0,60,0.00,,,0.00,Wunderground v.1.15,2013-04-19 19:35:00,
2013-04-19 15:40:00,73.8,59.0,29.38,ESE,108,9.0,11.0,60,0.00,,,0.00,Wunderground v.1.15,2013-04-19 19:40:00,
2013-04-19 15:46:00,74.4,59.6,29.38,ESE,120,9.0,13.0,60,0.00,,,0.00,Wunderground v.1.15,2013-04-19 19:46:00,
2013-04-19 15:51:00,74.9,59.6,29.39,South,188,8.0,8.0,59,0.00,,,0.00,Wunderground v.1.15,2013-04-19 19:51:00,
2013-04-19 15:56:00,74.7,58.9,29.38,SSW,197,9.0,15.0,58,0.00,,,0.00,Wunderground v.1.15,2013-04-19 19:56:00,
2013-04-19 16:02:00,74.5,59.2,29.39,NE,44,8.0,13.0,59,0.00,,,0.00,Wunderground v.1.15,2013-04-19 20:02:00,
2013-04-19 16:08:00,74.4,59.1,29.39,SE,141,9.0,16.0,59,0.00,,,0.00,Wunderground v.1.15,2013-04-19 20:08:00,
2013-04-19 16:13:00,74.8,59.5,29.39,ESE,105,9.0,16.0,59,0.00,,,0.00,Wunderground v.1.15,2013-04-19 20:13:00,
2013-04-19 16:19:00,75.1,59.3,29.39,ESE,107,9.0,16.0,58,0.00,,,0.00,Wunderground v.1.15,2013-04-19 20:19:00,
2013-04-19 16:24:00,75.0,59.2,29.39,East,101,10.0,19.0,58,0.00,,,0.00,Wunderground v.1.15,2013-04-19 20:24:00,
2013-04-19 16:30:00,74.9,59.6,29.39,ESE,113,9.0,9.0,59,0.00,,,0.00,Wunderground v.1.15,2013-04-19 20:30:00,
2013-04-19 16:35:00,74.9,59.1,29.39,NE,54,7.0,9.0,58,0.00,,,0.00,Wunderground v.1.15,2013-04-19 20:35:00,
2013-04-19 16:41:00,75.0,59.2,29.39,SSE,166,8.0,9.0,58,0.00,,,0.00,Wunderground v.1.15,2013-04-19 20:41:00,
2013-04-19 16:46:00,75.4,59.6,29.39,South,191,8.0,10.0,58,0.00,,,0.00,Wunderground v.1.15,2013-04-19 20:46:00,
2013-04-19 16:52:00,75.7,59.9,29.40,SW,228,9.0,10.0,58,0.00,,,0.00,Wunderground v.1.15,2013-04-19 20:52:00,
2013-04-19 16:57:00,75.8,59.5,29.40,SSE,149,9.0,13.0,57,0.00,,,0.00,Wunderground v.1.15,2013-04-19 20:57:00,
2013-04-19 17:03:00,75.6,59.8,29.39,SE,134,10.0,12.0,58,0.00,,,0.00,Wunderground v.1.15,2013-04-19 21:03:00,
2013-04-19 17:08:00,75.5,59.7,29.39,SSE,160,11.0,14.0,58,0.00,,,0.00,Wunderground v.1.15,2013-04-19 21:08:00,
2013-04-19 17:14:00,75.4,59.6,29.40,ESE,119,10.0,12.0,58,0.00,,,0.00,Wunderground v.1.15,2013-04-19 21:14:00,
2013-04-19 17:19:00,75.4,60.1,29.40,ESE,116,8.0,12.0,59,0.00,,,0.00,Wunderground v.1.15,2013-04-19 21:19:00,
2013-04-19 17:25:00,75.3,60.0,29.42,West,271,6.0,15.0,59,0.00,,,0.00,Wunderground v.1.15,2013-04-19 21:25:00,
2013-04-19 17:30:00,65.9,51.2,29.46,WNW,286,15.0,25.0,59,0.00,,,0.00,Wunderground v.1.15,2013-04-19 21:30:00,
2013-04-19 17:36:00,59.1,48.1,29.48,WNW,295,27.0,34.0,67,0.00,,,0.00,Wunderground v.1.15,2013-04-19 21:36:00,
2013-04-19 17:41:00,56.7,47.4,29.47,WNW,295,25.0,25.0,71,0.00,,,0.00,Wunderground v.1.15,2013-04-19 21:41:00,
2013-04-19 17:47:00,55.4,46.9,29.48,WNW,298,19.0,25.0,73,0.00,,,0.00,Wunderground v.1.15,2013-04-19 21:47:00,
2013-04-19 17:52:00,54.1,46.7,29.50,NW,307,18.0,18.0,76,0.00,,,0.00,Wunderground v.1.15,2013-04-19 21:52:00,
2013-04-19 17:58:00,52.7,45.7,29.50,West,278,19.0,25.0,77,0.00,,,0.00,Wunderground v.1.15,2013-04-19 21:58:00,
2013-04-19 18:03:00,50.8,45.5,29.51,WNW,294,23.0,33.0,82,0.00,,,0.00,Wunderground v.1.15,2013-04-19 22:03:00,
2013-04-19 18:09:00,49.9,45.6,29.50,WNW,285,23.0,33.0,85,0.00,,,0.00,Wunderground v.1.15,2013-04-19 22:09:00,
2013-04-19 18:14:00,49.2,45.5,29.53,WNW,285,20.0,34.0,87,0.00,,,0.01,Wunderground v.1.15,2013-04-19 22:14:00,
2013-04-19 18:20:00,48.5,45.1,29.52,West,278,16.0,21.0,88,0.65,,,0.05,Wunderground v.1.15,2013-04-19 22:20:00,
2013-04-19 18:25:00,48.2,44.8,29.54,WNW,288,17.0,24.0,88,0.18,,,0.06,Wunderground v.1.15,2013-04-19 22:25:00,
2013-04-19 18:31:00,47.9,44.8,29.54,West,281,18.0,18.0,89,0.07,,,0.06,Wunderground v.1.15,2013-04-19 22:31:00,
2013-04-19 18:36:00,47.6,44.5,29.54,WNW,288,16.0,20.0,89,0.45,,,0.10,Wunderground v.1.15,2013-04-19 22:36:00,
2013-04-19 18:42:00,47.2,44.7,29.55,WNW,300,13.0,17.0,91,0.13,,,0.11,Wunderground v.1.15,2013-04-19 22:42:00,
2013-04-19 18:47:00,47.1,44.6,29.56,WNW,293,10.0,20.0,91,0.08,,,0.12,Wunderground v.1.15,2013-04-19 22:47:00,
2013-04-19 18:53:00,46.7,43.6,29.58,WNW,302,11.0,15.0,89,0.07,,,0.12,Wunderground v.1.15,2013-04-19 22:53:00,
2013-04-19 18:59:00,46.6,43.2,29.59,WNW,293,13.0,21.0,88,0.04,,,0.12,Wunderground v.1.15,2013-04-19 22:59:00,
2013-04-19 19:05:00,46.2,42.8,29.59,WNW,300,11.0,13.0,88,0.00,,,0.12,Wunderground v.1.15,2013-04-19 23:05:00,
2013-04-19 19:11:00,45.5,42.2,29.61,WNW,284,12.0,14.0,88,0.00,,,0.13,Wunderground v.1.15,2013-04-19 23:11:00,
2013-04-19 19:16:00,45.1,42.1,29.62,West,278,13.0,16.0,89,0.11,,,0.14,Wunderground v.1.15,2013-04-19 23:16:00,
2013-04-19 19:22:00,44.7,41.9,29.61,WNW,284,12.0,12.0,90,0.51,,,0.18,Wunderground v.1.15,2013-04-19 23:22:00,
2013-04-19 19:28:00,43.7,41.0,29.62,WNW,301,13.0,20.0,90,0.39,,,0.22,Wunderground v.1.15,2013-04-19 23:28:00,
2013-04-19 19:34:00,43.0,40.6,29.63,West,276,16.0,16.0,91,0.22,,,0.24,Wunderground v.1.15,2013-04-19 23:34:00,
2013-04-19 19:40:00,42.8,40.6,29.64,West,260,14.0,18.0,92,0.17,,,0.25,Wunderground v.1.15,2013-04-19 23:40:00,
2013-04-19 19:46:00,42.6,40.7,29.65,WNW,294,11.0,13.0,93,0.11,,,0.26,Wunderground v.1.15,2013-04-19 23:46:00,
2013-04-19 19:52:00,42.5,40.6,29.65,WNW,296,8.0,9.0,93,0.06,,,0.27,Wunderground v.1.15,2013-04-19 23:52:00,
2013-04-19 19:57:00,42.5,40.6,29.66,WNW,287,8.0,10.0,93,0.06,,,0.27,Wunderground v.1.15,2013-04-19 23:57:00,
2013-04-19 20:02:00,42.5,40.3,29.66,WNW,289,9.0,15.0,92,0.06,,,0.28,Wunderground v.1.15,2013-04-20 00:02:00,
2013-04-19 20:08:00,42.5,40.3,29.67,WNW,300,10.0,15.0,92,0.06,,,0.28,Wunderground v.1.15,2013-04-20 00:08:00,
2013-04-19 20:14:00,42.6,40.7,29.67,WNW,294,10.0,13.0,93,0.05,,,0.29,Wunderground v.1.15,2013-04-20 00:14:00,
2013-04-19 20:20:00,42.6,40.4,29.68,WNW,286,10.0,13.0,92,0.05,,,0.29,Wunderground v.1.15,2013-04-20 00:20:00,
2013-04-19 20:25:00,42.6,40.4,29.67,WNW,288,10.0,13.0,92,0.04,,,0.29,Wunderground v.1.15,2013-04-20 00:25:00,
2013-04-19 20:31:00,42.6,40.4,29.68,West,279,9.0,9.0,92,0.00,,,0.29,Wunderground v.1.15,2013-04-20 00:31:00,
2013-04-19 20:36:00,42.6,40.4,29.69,WNW,284,8.0,12.0,92,0.00,,,0.29,Wunderground v.1.15,2013-04-20 00:36:00,
2013-04-19 20:42:00,42.7,40.5,29.69,WNW,287,9.0,10.0,92,0.00,,,0.29,Wunderground v.1.15,2013-04-20 00:42:00,
2013-04-19 20:47:00,42.7,40.5,29.69,WNW,285,8.0,10.0,92,0.00,,,0.29,Wunderground v.1.15,2013-04-20 00:47:00,
2013-04-19 20:53:00,42.6,40.2,29.69,WNW,284,8.0,11.0,91,0.00,,,0.29,Wunderground v.1.15,2013-04-20 00:53:00,
2013-04-19 20:58:00,42.6,40.2,29.70,WNW,300,8.0,11.0,91,0.00,,,0.29,Wunderground v.1.15,2013-04-20 00:58:00,
2013-04-19 21:04:00,42.7,40.3,29.70,WNW,290,7.0,9.0,91,0.00,,,0.29,Wunderground v.1.15,2013-04-20 01:04:00,
2013-04-19 21:09:00,42.7,40.0,29.70,WNW,291,6.0,9.0,90,0.00,,,0.29,Wunderground v.1.15,2013-04-20 01:09:00,
2013-04-19 21:15:00,42.7,39.7,29.70,West,278,6.0,7.0,89,0.00,,,0.29,Wunderground v.1.15,2013-04-20 01:15:00,
2013-04-19 21:20:00,42.7,39.7,29.70,West,266,6.0,7.0,89,0.00,,,0.29,Wunderground v.1.15,2013-04-20 01:20:00,
2013-04-19 21:26:00,42.8,39.8,29.71,WNW,285,5.0,7.0,89,0.00,,,0.29,Wunderground v.1.15,2013-04-20 01:26:00,
2013-04-19 21:32:00,42.8,39.5,29.71,WNW,294,6.0,8.0,88,0.00,,,0.29,Wunderground v.1.15,2013-04-20 01:32:00,
2013-04-19 21:37:00,42.8,39.2,29.71,WNW,293,7.0,8.0,87,0.00,,,0.29,Wunderground v.1.15,2013-04-20 01:37:00,
2013-04-19 21:43:00,42.7,39.4,29.72,WNW,285,5.0,6.0,88,0.00,,,0.29,Wunderground v.1.15,2013-04-20 01:43:00,
2013-04-19 21:49:00,42.7,39.1,29.72,WNW,285,4.0,6.0,87,0.00,,,0.29,Wunderground v.1.15,2013-04-20 01:49:00,
2013-04-19 21:55:00,42.7,39.1,29.72,West,269,3.0,6.0,87,0.00,,,0.29,Wunderground v.1.15,2013-04-20 01:55:00,
2013-04-19 22:00:00,42.6,38.7,29.72,WSW,252,4.0,6.0,86,0.00,,,0.29,Wunderground v.1.15,2013-04-20 02:00:00,
2013-04-19 22:06:00,42.6,38.7,29.73,WSW,243,4.0,7.0,86,0.00,,,0.29,Wunderground v.1.15,2013-04-20 02:06:00,
2013-04-19 22:11:00,42.6,39.0,29.73,NW,307,3.0,4.0,87,0.00,,,0.29,Wunderground v.1.15,2013-04-20 02:11:00,
2013-04-19 22:17:00,42.5,38.6,29.73,West,281,2.0,4.0,86,0.00,,,0.29,Wunderground v.1.15,2013-04-20 02:17:00,
2013-04-19 22:23:00,42.5,38.6,29.74,NW,304,2.0,3.0,86,0.00,,,0.29,Wunderground v.1.15,2013-04-20 02:23:00,
2013-04-19 22:28:00,42.5,38.3,29.75,West,277,3.0,5.0,85,0.00,,,0.29,Wunderground v.1.15,2013-04-20 02:28:00,
2013-04-19 22:34:00,42.5,38.3,29.75,WNW,284,3.0,4.0,85,0.00,,,0.29,Wunderground v.1.15,2013-04-20 02:34:00,
2013-04-19 22:39:00,42.6,38.1,29.75,WNW,289,3.0,4.0,84,0.00,,,0.29,Wunderground v.1.15,2013-04-20 02:39:00,
2013-04-19 22:45:00,42.6,37.8,29.75,WNW,289,4.0,6.0,83,0.00,,,0.29,Wunderground v.1.15,2013-04-20 02:45:00,
2013-04-19 22:50:00,42.6,37.8,29.76,WNW,293,4.0,6.0,83,0.00,,,0.29,Wunderground v.1.15,2013-04-20 02:50:00,
2013-04-19 22:55:00,42.6,37.8,29.76,West,269,3.0,4.0,83,0.00,,,0.29,Wunderground v.1.15,2013-04-20 02:55:00,
2013-04-19 23:00:00,42.5,37.7,29.76,WSW,254,3.0,4.0,83,0.00,,,0.00,Wunderground v.1.15,2013-04-20 03:00:00,
2013-04-19 23:06:00,42.6,37.8,29.76,WSW,252,3.0,4.0,83,0.00,,,0.00,Wunderground v.1.15,2013-04-20 03:06:00,
2013-04-19 23:12:00,42.5,37.7,29.76,WNW,302,2.0,4.0,83,0.00,,,0.00,Wunderground v.1.15,2013-04-20 03:12:00,
2013-04-19 23:17:00,42.5,37.7,29.76,West,278,2.0,5.0,83,0.00,,,0.00,Wunderground v.1.15,2013-04-20 03:17:00,
2013-04-19 23:23:00,42.5,37.4,29.75,East,85,3.0,4.0,82,0.00,,,0.00,Wunderground v.1.15,2013-04-20 03:23:00,
2013-04-19 23:29:00,42.5,37.1,29.76,WNW,300,3.0,6.0,81,0.00,,,0.00,Wunderground v.1.15,2013-04-20 03:29:00,
2013-04-19 23:34:00,42.6,36.9,29.75,West,277,5.0,7.0,80,0.00,,,0.00,Wunderground v.1.15,2013-04-20 03:34:00,
2013-04-19 23:40:00,42.5,36.4,29.75,West,276,6.0,6.0,79,0.00,,,0.00,Wunderground v.1.15,2013-04-20 03:40:00,
2013-04-19 23:46:00,42.5,36.1,29.75,WNW,293,6.0,8.0,78,0.00,,,0.00,Wunderground v.1.15,2013-04-20 03:46:00,
2013-04-19 23:52:00,42.6,35.9,29.75,WNW,298,8.0,12.0,77,0.00,,,0.00,Wunderground v.1.15,2013-04-20 03:52:00,
2013-04-19 23:57:00,42.5,35.8,29.75,WNW,293,7.0,12.0,77,0.00,,,0.00,Wunderground v.1.15,2013-04-20 03:57:00,